Theta_e
346 355 361 357 357 358 358 357 357 357 356 355 355 356 356 356 355 354 354 353 352 351 351 350 350 349 350 349 349 349 348 348 349 349 350 351 345 347 349 350 350 348 356
347 355 360 360 358 358 357 357 357 356 355 355 355 354 354 354 353 354 354 354 353 353 352 351 351 351 351 350 350 349 348 348 348 349 350 353 353 347 352 353 354 351 353
347 353 357 359 357 357 357 357 355 355 355 354 354 354 354 353 353 351 351 351 351 351 352 352 352 353 353 353 353 352 351 350 350 350 351 347 349 353 351 352 354 353 349
350 352 353 359 357 356 355 354 355 355 355 354 353 351 349 349 349 349 351 352 352 352 352 352 352 351 352 352 353 353 353 352 351 351 345 341 342 349 347 353 352 355 352
351 354 358 357 355 354 355 356 354 353 352 351 351 351 351 352 353 353 353 354 353 353 351 351 351 352 352 352 353 353 353 353 352 350 343 342 342 347 347 348 354 355 355
349 352 355 355 356 356 354 354 353 355 355 355 355 355 355 354 354 354 354 355 354 353 353 352 351 351 351 350 350 351 352 354 354 351 351 350 345 350 349 352 354 355 356
348 351 353 357 355 354 353 354 354 353 352 351 351 351 350 349 349 350 351 350 349 349 350 350 347 345 349 352 352 352 352 352 351 349 349 351 351 350 350 353 357 359 357
347 348 351 354 355 354 354 352 351 349 346 345 344 344 344 344 345 344 344 343 342 342 342 342 342 342 341 342 342 342 341 345 350 349 349 350 352 349 351 356 360 361 358
345 345 348 350 354 354 353 349 346 344 342 339 338 338 338 338 340 339 338 339 338 337 338 338 338 338 337 336 337 338 338 338 344 347 347 349 350 348 352 353 354 360 358
343 344 346 349 349 352 350 345 341 337 335 334 332 331 332 336 334 335 337 334 335 334 335 335 335 334 334 333 333 334 336 339 341 342 347 349 349 348 349 350 352 352 355
342 347 350 349 353 350 348 342 339 335 333 334 333 328 334 330 329 330 329 329 330 331 331 331 331 331 332 336 333 331 335 341 340 341 343 351 348 349 350 347 347 347 346
342 347 349 352 351 352 346 346 342 338 335 332 330 331 328 330 328 326 327 325 327 328 327 327 328 330 333 333 334 336 337 338 338 339 340 345 347 349 350 348 346 346 347
345 347 348 352 354 348 347 345 341 338 335 331 330 330 330 328 328 326 325 325 327 327 327 328 327 326 327 326 326 328 331 334 336 337 342 335 335 342 350 349 347 347 347
345 346 348 350 352 350 346 343 339 335 332 328 328 329 328 326 326 326 324 325 325 326 327 326 325 327 327 327 325 324 325 326 329 333 338 333 331 337 344 349 347 347 346
344 346 347 348 349 345 342 337 333 332 329 329 327 327 327 325 325 325 326 325 326 325 325 325 325 325 325 324 324 324 324 325 326 328 331 333 331 336 341 347 346 345 345
344 344 345 344 345 341 338 336 332 330 330 328 327 326 327 324 325 324 325 324 324 325 325 325 325 323 323 326 326 327 327 325 326 328 330 335 336 337 339 342 346 344 344
341 339 337 337 339 339 336 334 331 329 329 327 326 327 326 326 326 327 323 322 323 323 324 324 324 323 324 324 326 327 329 331 332 333 335 337 337 339 338 340 341 340 340
336 334 333 332 335 334 334 331 329 329 328 326 325 324 324 325 327 325 322 322 323 322 321 321 321 322 322 322 324 325 326 328 330 333 336 337 340 341 339 338 338 337 338
336 331 328 332 333 333 332 330 329 329 326 325 324 322 324 325 326 324 322 322 322 319 320 321 320 321 321 319 318 319 324 324 327 329 332 333 334 337 338 335 333 332 331
330 329 330 330 333 332 330 328 326 325 325 325 322 322 324 324 324 323 321 321 319 318 319 320 320 321 319 320 317 316 318 324 323 325 326 327 330 328 331 330 325 324 325
331 324 326 329 331 328 325 323 323 323 323 321 321 323 323 323 323 323 319 318 317 318 319 321 319 318 317 320 320 318 315 316 321 322 325 324 326 325 323 323 323 323 321
328 329 328 329 329 328 326 327 325 323 320 319 321 323 322 321 321 321 319 317 318 315 318 318 319 316 315 316 313 316 311 314 315 320 320 320 321 322 320 321 321 322 323
329 328 327 328 329 328 327 324 322 320 319 318 319 318 319 319 319 321 319 318 317 316 313 315 316 316 311 314 315 311 309 308 312 314 318 320 322 317 314 312 315 317 318
327 328 328 327 327 327 326 324 322 320 316 318 318 318 318 318 318 318 319 318 318 315 315 314 314 313 313 308 311 311 312 310 306 307 311 314 317 315 317 317 315 316 317
326 325 324 325 325 325 325 324 319 319 318 318 317 319 319 318 317 316 317 318 317 314 316 315 315 314 311 309 307 306 307 307 307 304 303 305 312 313 315 314 313 313 314
325 325 324 323 323 323 322 321 321 320 319 316 317 315 315 315 316 317 316 318 318 319 316 314 316 315 313 311 307 305 303 302 302 302 300 301 302 305 308 310 309 309 310
Wind_Speed
7 16 13 12 12 11 11 10 10 9 10 10 11 10 10 9 9 9 9 8 7 7 7 7 6 6 6 6 6 6 6 5 5 4 3 1 2 2 1 1 4 7 7
12 13 12 12 12 11 11 10 10 9 9 10 10 9 9 9 9 9 8 7 6 6 5 5 5 5 6 6 5 5 4 4 5 5 6 8 8 6 5 4 5 8 3
12 13 12 11 10 10 10 10 10 10 10 10 10 9 9 8 8 8 7 6 6 6 5 5 5 6 6 6 5 5 5 5 6 7 8 11 4 9 6 7 5 4 3
12 11 11 12 11 10 10 10 10 10 9 9 8 8 7 7 8 7 7 7 6 6 6 5 5 6 6 7 7 7 7 7 7 9 11 7 7 12 5 6 7 6 6
11 10 13 12 11 10 11 11 10 10 9 9 9 8 8 8 8 7 7 7 7 7 7 6 6 6 6 6 7 8 7 8 9 11 13 7 6 6 7 5 9 11 9
12 13 13 11 11 12 11 11 11 12 10 10 11 10 10 10 10 8 7 7 8 8 7 6 7 8 8 7 6 6 7 8 9 14 6 6 8 6 2 6 10 11 10
12 14 14 11 13 11 13 12 13 13 14 14 14 14 13 14 13 13 13 12 11 11 11 11 10 10 10 7 7 7 8 8 12 13 7 7 9 7 5 9 12 13 11
11 12 13 12 12 14 13 14 14 14 15 14 14 14 13 13 13 13 14 13 12 11 11 11 10 10 9 8 8 7 8 8 11 12 8 8 6 4 7 11 13 13 13
11 12 13 14 14 14 15 14 14 15 15 15 15 13 12 12 12 12 12 13 12 12 11 10 10 10 9 8 8 8 8 10 13 11 4 6 11 2 6 8 8 9 12
11 11 11 12 13 12 13 14 15 15 15 15 14 12 8 7 6 9 12 13 13 12 11 11 11 11 10 8 6 8 11 15 15 10 4 1 7 2 2 5 8 2 9
9 9 10 10 9 10 10 11 14 13 11 8 9 9 4 8 9 8 10 11 11 12 9 10 10 11 12 15 8 5 12 9 9 7 7 11 3 7 7 3 2 3 2
11 10 9 7 10 8 6 7 7 8 8 8 8 8 7 7 7 8 5 5 7 10 8 8 7 11 13 9 7 7 7 9 8 9 7 8 4 9 9 6 3 3 5
9 7 8 7 5 5 6 4 3 4 4 5 9 9 7 6 7 7 6 7 8 8 7 9 8 7 11 10 9 10 10 10 8 7 7 6 5 9 10 10 8 7 8
7 6 5 7 5 4 4 3 5 4 4 5 7 9 6 5 7 7 6 8 7 7 8 8 6 9 10 10 11 11 12 10 8 7 9 6 3 9 12 12 11 9 10
9 7 6 5 5 6 4 5 4 4 5 5 6 8 7 6 7 7 7 6 7 8 8 8 8 8 9 10 10 10 10 11 10 7 7 4 4 8 9 11 12 12 12
9 8 7 7 5 6 5 6 4 4 4 4 5 6 7 7 7 6 6 7 7 7 8 8 8 8 8 8 9 8 8 8 9 9 8 7 8 6 8 7 11 11 11
12 12 10 8 6 6 5 5 4 3 3 4 5 7 8 7 6 7 6 7 8 7 8 7 8 7 9 8 11 12 12 13 11 10 9 11 4 3 4 7 7 7 7
14 12 14 8 8 6 5 4 4 4 3 4 5 5 7 7 7 6 7 8 8 6 7 7 8 7 7 8 8 9 8 7 9 11 8 9 7 8 12 17 13 11 12
10 12 10 10 9 8 7 6 6 5 3 4 4 5 6 7 7 6 7 8 8 8 7 7 7 7 4 7 9 8 7 10 11 10 13 13 13 10 9 23 23 20 20
11 10 11 9 10 9 7 6 5 4 3 3 4 5 6 6 7 6 7 8 8 8 7 7 8 5 5 5 4 8 8 8 6 7 12 11 11 11 10 9 11 12 19
10 11 9 10 9 8 7 6 5 3 3 4 5 6 6 6 7 6 7 8 7 9 8 9 6 9 6 7 5 4 5 9 10 10 10 8 11 11 10 10 7 6 10
13 12 11 11 10 6 5 3 3 3 4 5 5 6 6 7 7 6 7 7 9 7 9 9 9 5 7 9 6 5 4 3 7 8 6 7 10 9 11 12 11 10 8
13 14 11 11 10 7 6 6 5 5 5 5 5 5 6 6 7 7 7 7 6 7 8 9 9 10 5 6 10 8 4 3 4 4 7 7 7 7 7 8 9 9 8
14 12 11 10 9 9 8 6 4 2 4 5 4 6 5 6 6 7 6 6 6 7 8 8 8 7 10 7 4 5 5 6 7 3 6 5 4 5 6 4 4 6 6
14 12 12 12 10 9 7 5 6 5 7 5 5 6 6 5 6 6 6 6 6 7 7 8 9 10 8 8 8 7 6 4 5 5 4 4 2 3 2 4 6 5 4
14 14 13 13 11 9 8 8 6 8 7 6 6 5 4 5 6 4 4 4 4 3 5 6 6 8 7 9 7 7 7 7 7 5 5 4 5 5 5 4 5 5 6
Wind_Direction
140 114 129 134 141 142 136 132 127 124 119 111 103 97 93 88 81 75 72 65 60 58 55 46 38 35 33 35 33 28 22 12 0 351 342 265 208 202 220 257 269 219 63
127 121 129 134 141 139 136 130 122 115 107 101 97 92 88 85 78 70 64 56 50 42 40 28 22 15 7 7 8 4 1 352 339 323 309 246 204 194 207 229 278 34 82
119 125 145 131 130 132 123 117 114 111 102 93 86 78 71 63 59 58 51 45 31 17 10 0 354 346 342 336 332 329 327 325 316 304 289 263 216 169 212 230 248 249 200
125 125 118 115 118 118 112 108 103 93 87 85 82 80 76 69 64 56 49 38 30 16 0 350 345 336 326 319 316 315 311 307 301 295 262 252 266 142 197 244 244 224 214
122 120 110 107 112 115 112 100 92 85 80 75 70 64 62 59 54 47 46 40 34 24 11 355 345 330 320 312 310 305 297 294 290 274 266 286 278 139 164 246 239 220 212
139 117 112 118 121 110 98 93 85 76 81 83 72 69 72 66 57 48 35 32 25 15 8 1 353 349 330 322 319 305 296 288 275 261 246 256 260 98 63 279 271 274 207
131 125 129 124 110 112 101 93 86 79 73 72 65 61 57 54 50 50 47 43 38 32 31 32 27 15 6 338 326 324 309 294 275 279 255 255 269 58 323 281 270 251 238
137 123 134 120 123 106 106 93 82 77 70 65 63 58 57 54 52 45 43 36 31 31 25 21 13 10 8 5 358 355 345 321 273 250 285 272 93 55 296 292 277 240 214
137 135 139 136 113 113 98 90 83 75 70 64 58 55 57 54 50 44 46 28 24 19 13 10 7 2 358 354 350 345 331 307 287 272 257 260 85 40 307 333 314 212 197
149 142 138 136 141 125 116 95 87 77 70 64 56 51 31 94 42 54 11 27 16 11 10 8 358 349 337 319 321 327 316 290 262 309 269 247 75 288 319 7 26 139 175
142 134 131 130 130 126 120 113 114 97 86 72 65 43 47 32 18 21 50 16 6 4 357 354 348 333 312 272 239 280 288 272 295 285 293 84 82 254 239 339 17 72 128
146 152 126 146 130 129 112 101 89 73 57 47 45 36 34 30 21 352 25 13 356 3 317 343 317 300 267 318 302 233 275 296 284 280 278 59 316 266 236 231 230 198 148
139 127 133 128 141 133 123 107 88 78 67 71 49 24 43 18 7 3 355 352 348 4 349 337 328 341 337 323 316 303 297 290 276 279 274 90 321 295 253 221 203 182 161
149 127 146 145 143 107 115 123 102 85 67 53 53 20 23 13 3 358 4 350 350 352 350 346 341 340 328 318 310 304 300 297 292 298 299 123 286 285 276 225 199 181 162
149 146 144 150 135 138 141 78 66 72 58 61 53 42 14 6 358 8 7 5 8 356 355 347 352 344 329 326 319 317 304 298 294 287 288 161 237 274 281 243 193 184 163
136 134 128 122 123 90 101 96 89 71 97 65 58 38 28 3 6 8 13 13 12 7 356 347 354 339 332 332 346 336 318 310 304 294 283 288 185 247 271 258 187 176 164
153 142 135 140 130 114 100 102 85 95 88 67 65 48 31 16 19 348 22 15 12 2 350 1 349 346 16 2 15 8 13 356 359 352 323 346 347 102 277 189 155 169 163
156 155 145 139 138 142 142 123 107 93 70 58 42 45 28 30 18 24 25 23 358 4 4 3 10 6 13 34 33 30 31 33 23 27 20 25 15 43 46 68 76 78 67
152 147 119 147 155 146 137 120 105 109 72 54 41 44 43 43 32 20 27 28 354 5 16 14 18 41 33 43 55 38 32 31 29 32 42 42 44 56 70 73 69 68 75
153 138 131 149 147 148 144 135 115 121 99 59 51 56 40 53 42 8 54 23 12 21 36 17 26 37 11 17 33 57 54 55 46 53 41 39 55 46 60 72 95 70 66
133 123 153 144 155 164 160 151 161 124 126 89 84 66 60 43 46 21 42 26 33 36 28 17 1 51 26 353 290 119 107 70 54 40 30 58 42 50 60 38 39 98 101
153 153 159 166 168 169 155 126 107 136 83 83 87 79 62 60 42 63 33 47 11 60 31 26 17 2 50 37 352 349 305 114 79 58 72 67 50 42 35 46 52 41 23
167 164 173 168 163 175 138 140 131 130 143 141 139 106 70 62 63 67 59 45 55 29 50 27 15 15 24 66 36 359 308 31 317 81 60 52 75 66 61 41 35 32 28
172 167 171 164 165 164 179 161 169 134 146 88 115 83 96 72 78 78 71 66 38 51 34 43 34 31 357 23 35 59 27 9 344 298 108 95 89 80 34 52 53 41 22
162 172 164 162 165 155 163 168 163 150 131 150 125 135 81 98 93 91 88 74 47 42 56 45 43 26 47 23 23 10 20 33 5 342 334 9 260 83 35 348 345 343 6
169 176 168 162 162 163 159 151 151 144 147 145 148 155 136 130 132 79 74 61 34 14 47 52 42 51 42 30 28 28 36 27 25 13 356 8 325 34 348 347 352 351 349